Back to catalog

COSMOS 886 DEB *

AliveLEO
NORAD 9798·DEBRIS·🇷🇺 Russia

Launched Dec 27, 1976 from Baikonur Cosmodrome

Loading…

Next Passes (next 24 hours)

TLE

FreshSource: Space-Track

Epoch: Sep 14, 2026, 03:10 UTC

1 09798U 76126Y   26257.13196855  .00000018  00000-0  12024-3 0  9996
2 09798  65.7535 114.1007 0123033 136.3533 308.3355 13.61284296460498

Track COSMOS 886 DEB * in real time with AllMySat

Download on the App Store